| time (UTC) | temp C | wind direction | speed KPH | gust KPH | rain 1hr cm | rain 24hr cm | rain mn cm | humidity % | barometer mb |
| 20260504010047 | 11 | 0 | 0.0 | 8.0 | 0.00 | 0.00 | 0.00 | 45 | 1011.3 |
| 20260504010010 | 11 | 210 | 6.4 | 11.3 | 0.00 | 0.00 | 0.00 | 44 | 1011.6 |
| 20260504010007 | 11 | 211 | 6.4 | 11.3 | 0.00 | 0.00 | 0.00 | 44 | 1011.6 |
| 20260504004546 | 12 | 0 | 0.0 | 12.9 | 0.00 | 0.00 | 0.00 | 43 | 1011.2 |
| 20260504004515 | 12 | 215 | 4.8 | 16.1 | 0.00 | 0.00 | 0.00 | 43 | 1011.6 |
| 20260504004506 | 12 | 216 | 4.8 | 14.5 | 0.00 | 0.00 | 0.00 | 43 | 1011.5 |
| 20260504003051 | 12 | 234 | 4.8 | 17.7 | 0.00 | 0.00 | 0.00 | 42 | 1011.1 |
| 20260504003016 | 12 | 210 | 6.4 | 24.1 | 0.00 | 0.00 | 0.00 | 41 | 1011.5 |
| 20260504003006 | 12 | 211 | 6.4 | 22.5 | 0.00 | 0.00 | 0.00 | 41 | 1011.4 |
| 20260504001546 | 12 | 0 | 0.0 | 14.5 | 0.00 | 0.00 | 0.00 | 42 | 1011.1 |
| 20260504001525 | 12 | 202 | 4.8 | 16.1 | 0.00 | 0.00 | 0.00 | 41 | 1011.5 |
| 20260504001508 | 12 | 203 | 4.8 | 14.5 | 0.00 | 0.00 | 0.00 | 41 | 1011.5 |
| 20260504000050 | 12 | 277 | 6.4 | 12.9 | 0.00 | 0.00 | 0.00 | 42 | 1011.2 |
| 20260504000025 | 12 | 227 | 6.4 | 14.5 | 0.00 | 0.00 | 0.00 | 41 | 1011.6 |
| 20260504000004 | 12 | 204 | 6.4 | 14.5 | 0.00 | 0.00 | 0.00 | 41 | 1011.6 |
| 20260503234549 | 13 | 345 | 1.6 | 11.3 | 0.00 | 0.00 | 0.00 | 43 | 1011.2 |
| 20260503234510 | 13 | 269 | 9.7 | 17.7 | 0.00 | 0.00 | 0.00 | 42 | 1011.6 |
| 20260503234506 | 13 | 272 | 9.7 | 17.7 | 0.00 | 0.00 | 0.00 | 42 | 1011.5 |
| 20260503233047 | 13 | 262 | 4.8 | 19.3 | 0.00 | 0.00 | 0.00 | 42 | 1011.4 |
| 20260503233019 | 13 | 232 | 4.8 | 20.9 | 0.00 | 0.00 | 0.00 | 40 | 1011.6 |
| 20260503233008 | 13 | 234 | 4.8 | 19.3 | 0.00 | 0.00 | 0.00 | 40 | 1011.6 |
| 20260503231546 | 13 | 309 | 6.4 | 20.9 | 0.00 | 0.00 | 0.00 | 41 | 1011.5 |
| 20260503231525 | 13 | 168 | 8.0 | 29.0 | 0.00 | 0.00 | 0.00 | 40 | 1011.7 |
| 20260503231505 | 13 | 167 | 6.4 | 24.1 | 0.00 | 0.00 | 0.00 | 40 | 1011.6 |
| 20260503230045 | 13 | 261 | 8.0 | 17.7 | 0.00 | 0.00 | 0.00 | 41 | 1011.5 |
| 20260503230036 | 13 | 168 | 9.7 | 19.3 | 0.00 | 0.00 | 0.00 | 40 | 1011.7 |
| 20260503230008 | 13 | 167 | 8.0 | 17.7 | 0.00 | 0.00 | 0.00 | 40 | 1011.6 |
| 20260503224558 | 13 | 316 | 0.0 | 16.1 | 0.00 | 0.00 | 0.00 | 41 | 1011.5 |
| 20260503224528 | 13 | 243 | 8.0 | 25.7 | 0.00 | 0.00 | 0.00 | 40 | 1011.8 |
| 20260503224509 | 13 | 273 | 8.0 | 24.1 | 0.00 | 0.00 | 0.00 | 40 | 1011.7 |
| 20260503223045 | 13 | 295 | 9.7 | 20.9 | 0.00 | 0.00 | 0.00 | 40 | 1011.6 |
| 20260503223012 | 13 | 263 | 11.3 | 25.7 | 0.00 | 0.00 | 0.00 | 39 | 1011.9 |
| 20260503223009 | 13 | 266 | 11.3 | 24.1 | 0.00 | 0.00 | 0.00 | 39 | 1011.8 |
| 20260503221559 | 13 | 269 | 9.7 | 19.3 | 0.00 | 0.00 | 0.00 | 40 | 1011.7 |
| 20260503221518 | 13 | 248 | 11.3 | 20.9 | 0.00 | 0.00 | 0.00 | 39 | 1012.0 |
| 20260503221508 | 13 | 250 | 11.3 | 20.9 | 0.00 | 0.00 | 0.00 | 39 | 1011.9 |
| 20260503220051 | 13 | 249 | 8.0 | 20.9 | 0.00 | 0.00 | 0.00 | 40 | 1011.6 |
| 20260503220022 | 13 | 229 | 8.0 | 29.0 | 0.00 | 0.00 | 0.00 | 39 | 1011.9 |
| 20260503220010 | 13 | 231 | 8.0 | 27.4 | 0.00 | 0.00 | 0.00 | 39 | 1011.8 |
| 20260503214547 | 13 | 302 | 4.8 | 19.3 | 0.00 | 0.00 | 0.00 | 41 | 1011.5 |
| 20260503214508 | 13 | 268 | 6.4 | 27.4 | 0.00 | 0.00 | 0.00 | 39 | 1011.9 |
| 20260503214506 | 13 | 271 | 4.8 | 25.7 | 0.00 | 0.00 | 0.00 | 39 | 1011.8 |
| 20260503213046 | 13 | 293 | 8.0 | 22.5 | 0.00 | 0.00 | 0.00 | 40 | 1011.5 |
| 20260503213009 | 13 | 266 | 8.0 | 25.7 | 0.00 | 0.00 | 0.00 | 38 | 1011.8 |
| 20260503211552 | 14 | 272 | 6.4 | 20.9 | 0.00 | 0.00 | 0.00 | 39 | 1011.4 |
| 20260503211516 | 14 | 268 | 6.4 | 20.9 | 0.00 | 0.00 | 0.00 | 39 | 1011.7 |
| 20260503211507 | 14 | 271 | 6.4 | 22.5 | 0.00 | 0.00 | 0.00 | 39 | 1011.8 |
| 20260503210042 | 15 | 238 | 12.9 | 19.3 | 0.00 | 0.00 | 0.00 | 37 | 1011.4 |
| 20260503210022 | 15 | 295 | 14.5 | 25.7 | 0.00 | 0.00 | 0.00 | 35 | 1011.7 |
| 20260503210010 | 15 | 300 | 14.5 | 25.7 | 0.00 | 0.00 | 0.00 | 35 | 1011.7 |
| 20260503204606 | 14 | 343 | 8.0 | 17.7 | 0.00 | 0.00 | 0.00 | 39 | 1011.4 |
| 20260503204524 | 14 | 250 | 9.7 | 24.1 | 0.00 | 0.00 | 0.00 | 38 | 1011.8 |
| 20260503204517 | 14 | 253 | 8.0 | 22.5 | 0.00 | 0.00 | 0.00 | 38 | 1011.8 |
| 20260503203049 | 13 | 266 | 6.4 | 17.7 | 0.00 | 0.00 | 0.00 | 40 | 1011.7 |
| 20260503203011 | 13 | 208 | 9.7 | 19.3 | 0.00 | 0.00 | 0.00 | 39 | 1012.0 |
| 20260503203006 | 13 | 209 | 8.0 | 17.7 | 0.00 | 0.00 | 0.00 | 39 | 1012.0 |
| 20260503201548 | 13 | 277 | 8.0 | 20.9 | 0.00 | 0.00 | 0.00 | 41 | 1011.8 |
| 20260503201515 | 13 | 256 | 9.7 | 30.6 | 0.00 | 0.00 | 0.00 | 39 | 1012.1 |
| 20260503201511 | 13 | 259 | 9.7 | 25.7 | 0.00 | 0.00 | 0.00 | 39 | 1012.0 |
| 20260503200051 | 13 | 269 | 6.4 | 19.3 | 0.00 | 0.00 | 0.00 | 41 | 1011.9 |
| 20260503200018 | 13 | 240 | 6.4 | 27.4 | 0.00 | 0.00 | 0.00 | 36 | 1012.3 |
| 20260503200012 | 13 | 242 | 6.4 | 25.7 | 0.00 | 0.00 | 0.00 | 36 | 1012.2 |
| 20260503194548 | 13 | 321 | 14.5 | 22.5 | 0.00 | 0.00 | 0.00 | 38 | 1012.1 |
| 20260503194525 | 14 | 263 | 16.1 | 27.4 | 0.00 | 0.00 | 0.00 | 37 | 1012.5 |
| 20260503194510 | 14 | 266 | 16.1 | 25.7 | 0.00 | 0.00 | 0.00 | 37 | 1012.4 |
| 20260503193048 | 14 | 274 | 14.5 | 20.9 | 0.00 | 0.00 | 0.00 | 36 | 1012.4 |
| 20260503193040 | 14 | 267 | 20.9 | 30.6 | 0.00 | 0.00 | 0.00 | 37 | 1012.9 |
| 20260503193013 | 14 | 270 | 19.3 | 29.0 | 0.00 | 0.00 | 0.00 | 37 | 1012.6 |
| 20260503191605 | 15 | 268 | 9.7 | 20.9 | 0.00 | 0.00 | 0.00 | 36 | 1012.5 |
| 20260503191525 | 15 | 227 | 12.9 | 30.6 | 0.00 | 0.00 | 0.00 | 35 | 1012.8 |
| 20260503191522 | 15 | 225 | 14.5 | 30.6 | 0.00 | 0.00 | 0.00 | 35 | 1013.1 |
| 20260503190048 | 14 | 291 | 12.9 | 20.9 | 0.00 | 0.00 | 0.00 | 40 | 1012.7 |
| 20260503190025 | 14 | 217 | 14.5 | 27.4 | 0.00 | 0.00 | 0.00 | 39 | 1013.2 |
| 20260503190012 | 14 | 218 | 14.5 | 25.7 | 0.00 | 0.00 | 0.00 | 39 | 1012.9 |
| 20260503184556 | 13 | 324 | 3.2 | 20.9 | 0.00 | 0.00 | 0.00 | 43 | 1012.8 |
| 20260503184520 | 13 | 202 | 11.3 | 27.4 | 0.00 | 0.00 | 0.00 | 37 | 1013.3 |
| 20260503184516 | 13 | 203 | 9.7 | 22.5 | 0.00 | 0.00 | 0.00 | 37 | 1013.1 |
| 20260503183057 | 13 | 333 | 8.0 | 20.9 | 0.00 | 0.00 | 0.00 | 41 | 1013.0 |
| 20260503183025 | 13 | 286 | 9.7 | 27.4 | 0.00 | 0.00 | 0.00 | 39 | 1013.4 |
| 20260503183014 | 13 | 290 | 9.7 | 25.7 | 0.00 | 0.00 | 0.00 | 39 | 1013.2 |
| 20260503181549 | 13 | 305 | 9.7 | 20.9 | 0.00 | 0.00 | 0.00 | 42 | 1013.1 |
| 20260503181514 | 13 | 267 | 11.3 | 30.6 | 0.00 | 0.00 | 0.00 | 41 | 1013.4 |
| 20260503181508 | 13 | 267 | 11.3 | 32.2 | 0.00 | 0.00 | 0.00 | 41 | 1013.5 |
| 20260503180058 | 13 | 293 | 9.7 | 20.9 | 0.00 | 0.00 | 0.00 | 41 | 1013.4 |
| 20260503180011 | 14 | 280 | 11.3 | 30.6 | 0.00 | 0.00 | 0.00 | 40 | 1013.6 |
| 20260503174554 | 13 | 346 | 6.4 | 20.9 | 0.00 | 0.00 | 0.00 | 42 | 1013.6 |
| 20260503174518 | 13 | 168 | 9.7 | 27.4 | 0.00 | 0.00 | 0.00 | 42 | 1013.7 |
| 20260503174515 | 13 | 167 | 8.0 | 24.1 | 0.00 | 0.00 | 0.00 | 42 | 1013.7 |
| 20260503173048 | 13 | 0 | 9.7 | 19.3 | 0.00 | 0.00 | 0.00 | 40 | 1013.7 |
| 20260503173024 | 13 | 260 | 9.7 | 24.1 | 0.00 | 0.00 | 0.00 | 38 | 1013.9 |
| 20260503173013 | 13 | 263 | 9.7 | 22.5 | 0.00 | 0.00 | 0.00 | 38 | 1013.8 |
| 20260503171549 | 13 | 293 | 8.0 | 20.9 | 0.00 | 0.00 | 0.00 | 41 | 1013.7 |
| 20260503171526 | 13 | 329 | 9.7 | 29.0 | 0.00 | 0.00 | 0.00 | 41 | 1014.0 |
| 20260503171515 | 13 | 335 | 9.7 | 27.4 | 0.00 | 0.00 | 0.00 | 41 | 1013.9 |
| 20260503081551 | 0 | 0 | 0.0 | 3.2 | 0.00 | 16.33 | 0.00 | 83 | 1014.9 |
| 20260503081524 | 0 | 216 | 0.0 | 4.8 | 0.00 | 0.08 | 0.00 | 84 | 1015.1 |
| 20260503081520 | 0 | 215 | 0.0 | 4.8 | 0.00 | 0.08 | 0.00 | 84 | 1015.1 |
| 20260503071610 | 1 | 0 | 0.0 | 1.6 | 0.00 | 22.83 | 0.00 | 82 | 1014.9 |
| 20260503071516 | 0 | 224 | 0.0 | 1.6 | 0.00 | 0.08 | 0.00 | 84 | 1014.9 |
| 20260503054605 | 1 | 0 | 0.0 | 1.6 | 0.00 | 3.58 | 0.00 | 77 | 1015.2 |
| 20260503054519 | 1 | 226 | 0.0 | 1.6 | 0.00 | 0.13 | 0.00 | 78 | 1015.5 |
| 20260503054504 | 1 | 228 | 0.0 | 1.6 | 0.00 | 0.13 | 0.00 | 78 | 1015.3 |
| 20260503053045 | 1 | 0 | 0.0 | 1.6 | 0.00 | 3.58 | 0.00 | 77 | 1015.2 |
| 20260503053004 | 1 | 203 | 0.0 | 3.2 | 0.00 | 0.15 | 0.00 | 78 | 1015.4 |
| 20260503051550 | 1 | 0 | 0.0 | 1.6 | 0.00 | 3.58 | 0.00 | 77 | 1015.3 |
| 20260503051511 | 1 | 203 | 0.0 | 3.2 | 0.00 | 0.18 | 0.00 | 78 | 1015.4 |
| 20260503051509 | 1 | 202 | 0.0 | 3.2 | 0.00 | 0.18 | 0.00 | 78 | 1015.5 |
| 20260503050051 | 1 | 0 | 0.0 | 0.0 | 0.00 | 3.58 | 0.00 | 76 | 1015.3 |
| 20260503050013 | 1 | 222 | 0.0 | 3.2 | 0.00 | 0.18 | 0.00 | 77 | 1015.5 |
| 20260503050010 | 1 | 221 | 0.0 | 3.2 | 0.00 | 0.18 | 0.00 | 77 | 1015.6 |
| 20260503044547 | 2 | 0 | 0.0 | 0.0 | 0.00 | 3.58 | 0.00 | 74 | 1015.4 |
| 20260503044517 | 1 | 240 | 0.0 | 0.0 | 0.00 | 0.18 | 0.00 | 75 | 1015.6 |
| 20260503044514 | 1 | 238 | 0.0 | 0.0 | 0.00 | 0.18 | 0.00 | 75 | 1015.7 |
| 20260503043053 | 2 | 0 | 0.0 | 0.0 | 0.00 | 3.58 | 0.00 | 72 | 1015.4 |
| 20260503043036 | 2 | 205 | 0.0 | 1.6 | 0.00 | 0.18 | 0.00 | 73 | 1015.5 |
| 20260503043021 | 2 | 204 | 0.0 | 1.6 | 0.00 | 0.18 | 0.00 | 73 | 1015.6 |
| 20260503041546 | 2 | 0 | 0.0 | 0.0 | 0.00 | 3.58 | 0.00 | 73 | 1015.4 |
| 20260503041526 | 2 | 230 | 0.0 | 3.2 | 0.00 | 0.18 | 0.00 | 73 | 1015.7 |
| 20260503041505 | 2 | 232 | 0.0 | 3.2 | 0.00 | 0.18 | 0.00 | 73 | 1015.5 |
| 20260503040046 | 3 | 0 | 0.0 | 0.0 | 0.00 | 3.58 | 0.00 | 74 | 1015.5 |
| 20260503040009 | 2 | 202 | 0.0 | 1.6 | 0.00 | 0.18 | 0.00 | 74 | 1015.8 |
| 20260503034549 | 3 | 0 | 0.0 | 1.6 | 0.00 | 3.58 | 3.58 | 73 | 1015.5 |
| 20260503034513 | 3 | 240 | 0.0 | 3.2 | 0.00 | 0.18 | 0.18 | 73 | 1015.7 |
| 20260503033048 | 3 | 0 | 0.0 | 0.0 | 0.00 | 3.58 | 3.58 | 73 | 1015.5 |
| 20260503033025 | 3 | 229 | 0.0 | 1.6 | 0.00 | 0.18 | 0.18 | 72 | 1015.7 |
| 20260503033018 | 3 | 227 | 0.0 | 1.6 | 0.00 | 0.18 | 0.18 | 72 | 1015.8 |
| 20260503031547 | 2 | 0 | 0.0 | 0.0 | 0.00 | 3.58 | 3.58 | 74 | 1015.6 |
| 20260503031523 | 2 | 217 | 0.0 | 1.6 | 0.00 | 0.18 | 0.18 | 74 | 1015.7 |
| 20260503030047 | 2 | 0 | 0.0 | 0.0 | 0.00 | 3.58 | 3.58 | 77 | 1015.7 |
| 20260503030029 | 2 | 265 | 0.0 | 1.6 | 0.00 | 0.18 | 0.18 | 76 | 1016.0 |
| 20260503030006 | 2 | 269 | 0.0 | 1.6 | 0.00 | 0.18 | 0.18 | 76 | 1015.8 |
| 20260503024546 | 2 | 0 | 0.0 | 0.0 | 0.00 | 3.58 | 3.58 | 79 | 1015.8 |
| 20260503024521 | 2 | 269 | 0.0 | 1.6 | 0.00 | 0.18 | 0.18 | 78 | 1016.0 |
| 20260503024508 | 2 | 265 | 0.0 | 1.6 | 0.00 | 0.18 | 0.18 | 78 | 1016.1 |
| 20260503023047 | 3 | 0 | 0.0 | 0.0 | 0.00 | 3.58 | 3.58 | 72 | 1016.0 |
| 20260503023013 | 3 | 269 | 0.0 | 1.6 | 0.00 | 0.18 | 0.18 | 72 | 1016.2 |
| 20260503021547 | 3 | 0 | 0.0 | 0.0 | 0.00 | 3.58 | 3.58 | 68 | 1016.0 |
| 20260503021537 | 3 | 269 | 0.0 | 1.6 | 0.00 | 0.18 | 0.18 | 69 | 1016.2 |
| 20260503021522 | 3 | 265 | 0.0 | 1.6 | 0.00 | 0.18 | 0.18 | 69 | 1016.3 |
| 20260503020047 | 3 | 0 | 0.0 | 0.0 | 0.00 | 3.58 | 3.58 | 69 | 1016.0 |
| 20260503020024 | 3 | 269 | 0.0 | 1.6 | 0.00 | 0.18 | 0.18 | 69 | 1016.2 |
| 20260503014558 | 3 | 0 | 0.0 | 0.0 | 0.00 | 3.58 | 3.58 | 69 | 1016.0 |
| 20260503014506 | 3 | 252 | 0.0 | 1.6 | 0.00 | 0.18 | 0.18 | 68 | 1016.1 |
| 20260503013049 | 3 | 0 | 0.0 | 1.6 | 0.00 | 3.58 | 3.58 | 70 | 1016.0 |
| 20260503013024 | 3 | 232 | 0.0 | 3.2 | 0.00 | 0.18 | 0.18 | 69 | 1016.3 |
| 20260503013012 | 3 | 234 | 0.0 | 3.2 | 0.00 | 0.18 | 0.18 | 69 | 1016.1 |
| 20260503011545 | 3 | 0 | 0.0 | 0.0 | 0.00 | 3.58 | 3.58 | 70 | 1016.0 |
| 20260503011520 | 3 | 249 | 0.0 | 0.0 | 0.00 | 0.18 | 0.18 | 69 | 1016.2 |